Regional Weather Roundup
Issued by NWS State College, PA

Home | Current Version | Previous Version | Text Only | Print | Product List | Glossary On
Versions: 1 2 3 4 5 6 7 8 9 10 11 12 13 14 15 16 17 18 19 20 21 22 23 24 25 26 27 28 29 30 31 32 33 34 35 36 37 38 39 40 41 42 43 44 45 46 47 48 49 50
989
ASUS41 KCTP 201510
RWRCTP

REGIONAL WEATHER ROUNDUP
NATIONAL WEATHER SERVICE STATE COLLEGE PA
1100 AM EDT FRI OCT 20 2017

Note: "fair" indicates few or no clouds below 12,000 feet with no
significant weather and/or obstructions to visibility.

* = STATION THAT DOES NOT REPORT PRECIPITATION /E.G. RAIN...SNOW...ETC/
    THUNDER OR FOG.

PAZ002>004-007>009-013>016-020>023-029>032-201600-
WESTERN PENNSYLVANIA

CITY           SKY/WX    TMP DP  RH WIND       PRES   REMARKS
ERIE           SUNNY     62  47  57 S5        30.29F
MEADVILLE      SUNNY     60  36  40 CALM      30.31S
FRANKLIN*      SUNNY     58  38  47 NE5       30.32S
NEW CASTLE     FAIR      56  48  74 CALM      30.34R
BEAVER COUNTY  SUNNY     63  45  51 CALM      30.33R
BUTLER*        SUNNY     60  43  53 NE6       30.33S
PITTSBURGH INT MOSUNNY   63  42  46 N5        30.32S
PITTSBURGH     SUNNY     62  44  51 VRB5      30.31S
INDIANA*       SUNNY     59  46  63 N6        30.34S
LATROBE        NOT AVBL
WASHINGTON CO* SUNNY     62  45  53 N7        30.35S
$$

PAZ004>006-010>012-017>019-024>028-033>037-041-042-045-046-049>053-201600-
CENTRAL PENNSYLVANIA

CITY           SKY/WX    TMP DP  RH WIND       PRES   REMARKS
BRADFORD       SUNNY     58  35  42 N9        30.30R
DUBOIS         SUNNY     58  31  35 N7        30.30S
CLEARFIELD     SUNNY     62  35  36 NW6       30.30S
JOHNSTOWN      SUNNY     59  40  49 NW9       30.31S
ALTOONA        SUNNY     64  43  46 NW8       30.29S
STATE COLLEGE  SUNNY     61  45  55 CALM      30.29R
WILLIAMSPORT   SUNNY     63  49  60 W8        30.24F
SELINSGROVE    SUNNY     65  48  54 N9        30.26S
FT INDIANTOWN  MOSUNNY   67  40  38 N3        30.23F
CAPITAL CITY   SUNNY     68  43  40 VRB6      30.25S
HARRISBURG     SUNNY     67  49  52 NW9       30.24S
YORK           SUNNY     67  50  54 N10       30.25S
$$

PAZ038>040-043-044-047-048-054-055-060>062-067>071-201600-
EASTERN PENNSYLVANIA

CITY           SKY/WX    TMP DP  RH WIND       PRES   REMARKS
SCRANTON       SUNNY     61  39  44 W10       30.23F
MOUNT POCONO   SUNNY     58  30  34 NW14G22   30.21S
ALLENTOWN      SUNNY     65  41  41 NW8       30.22S
QUAKERTOWN*    SUNNY     64  41  42 N8        30.23S
READING        SUNNY     67  48  50 NW9       30.22S
LANCASTER      SUNNY     66  49  54 NW10      30.24S
COATESVILLE    SUNNY     64  45  48 N7        30.25S
POTTSTOWN      SUNNY     65  45  48 VRB6      30.24S
BLUE BELL      SUNNY     64  43  45 NW6       30.23F
DOYLESTOWN     SUNNY     66  39  37 NW12G18   30.21S
WILLOW GROVE   NOT AVBL
NORTH PHILA    SUNNY     69  40  34 N10       30.22F
PHILADELPHIA   MOSUNNY   68  39  34 N9        30.22F
$$




USA.gov is the U.S. government's official web portal to all federal, state and local government web resources and services.